| time (UTC) | temp F | wind direction | speed MPH | gust MPH | rain 1hr in | rain 24hr in | rain mn in | humidity % | barometer mb |
| 20260504081547 | 0 | 0.0 | 0.0 | 0.00 | 0.11 | 0.00 | 978.7 | ||
| 20260504044558 | 0 | 152 | 11.0 | 18.0 | 0.00 | 0.11 | 0.00 | 973.0 | |
| 20260504043046 | 0 | 129 | 12.0 | 21.0 | 0.00 | 0.11 | 0.00 | 972.9 | |
| 20260504041541 | 0 | 133 | 14.0 | 24.0 | 0.00 | 0.11 | 0.00 | 973.4 | |
| 20260504040052 | 0 | 115 | 14.0 | 31.0 | 0.00 | 0.11 | 0.00 | 974.3 | |
| 20260504034551 | 0 | 108 | 20.0 | 31.0 | 0.00 | 0.11 | 0.00 | 974.6 | |
| 20260504033056 | 0 | 120 | 22.0 | 33.0 | 0.00 | 0.11 | 0.00 | 975.3 | |
| 20260504031547 | 0 | 109 | 20.0 | 34.0 | 0.00 | 0.11 | 0.00 | 976.3 | |
| 20260504030046 | 0 | 128 | 21.0 | 41.0 | 0.00 | 0.11 | 0.00 | 977.6 | |
| 20260504024548 | 0 | 134 | 22.0 | 33.0 | 0.00 | 0.11 | 0.11 | 978.3 | |
| 20260504023054 | 0 | 137 | 19.0 | 34.0 | 0.00 | 0.11 | 0.11 | 979.0 | |
| 20260504021550 | 0 | 148 | 20.0 | 33.0 | 0.00 | 0.11 | 0.11 | 979.8 | |
| 20260504020047 | 0 | 111 | 16.0 | 31.0 | 0.00 | 0.11 | 0.11 | 980.5 | |
| 20260504014550 | 0 | 139 | 13.0 | 20.0 | 0.00 | 0.11 | 0.11 | 981.4 | |
| 20260504013050 | 0 | 85 | 11.0 | 23.0 | 0.01 | 0.11 | 0.11 | 982.0 | |
| 20260504011545 | 0 | 73 | 19.0 | 33.0 | 0.02 | 0.11 | 0.11 | 982.8 | |
| 20260504010054 | 0 | 50 | 23.0 | 32.0 | 0.03 | 0.11 | 0.11 | 983.6 | |
| 20260504004548 | 41 | 59 | 27.0 | 37.0 | 0.03 | 0.11 | 0.11 | 96 | 984.3 |
| 20260504003044 | 41 | 28 | 29.0 | 39.0 | 0.02 | 0.10 | 0.10 | 95 | 985.0 |
| 20260504001607 | 41 | 36 | 31.0 | 40.0 | 0.04 | 0.09 | 0.09 | 95 | 985.1 |
| 20260504000045 | 41 | 54 | 25.0 | 33.0 | 0.07 | 0.08 | 0.08 | 96 | 985.9 |
| 20260503234553 | 40 | 33 | 28.0 | 38.0 | 0.08 | 0.08 | 0.08 | 97 | 986.8 |
| 20260503233045 | 40 | 40 | 30.0 | 36.0 | 0.07 | 0.07 | 0.07 | 97 | 987.7 |
| 20260503231549 | 40 | 37 | 29.0 | 37.0 | 0.04 | 0.04 | 0.04 | 97 | 988.6 |
| 20260503230048 | 39 | 31 | 26.0 | 35.0 | 0.00 | 0.00 | 0.00 | 97 | 989.1 |
| 20260503224545 | 0 | 33 | 26.0 | 35.0 | 0.00 | 0.00 | 0.00 | 990.1 | |
| 20260503223054 | 0 | 48 | 25.0 | 32.0 | 0.00 | 0.00 | 0.00 | 991.2 | |
| 20260503221551 | 0 | 45 | 25.0 | 30.0 | 0.00 | 0.00 | 0.00 | 992.2 | |
| 20260503220108 | 0 | 32 | 22.0 | 28.0 | 0.00 | 0.00 | 0.00 | 993.3 | |
| 20260503214549 | 0 | 43 | 23.0 | 28.0 | 0.00 | 0.00 | 0.00 | 994.0 | |
| 20260503213050 | 0 | 50 | 18.0 | 32.0 | 0.00 | 0.00 | 0.00 | 994.5 | |
| 20260503211601 | 0 | 55 | 28.0 | 32.0 | 0.00 | 0.00 | 0.00 | 994.6 | |
| 20260503210049 | 0 | 42 | 26.0 | 36.0 | 0.00 | 0.00 | 0.00 | 995.3 | |
| 20260503204553 | 0 | 49 | 28.0 | 34.0 | 0.00 | 0.00 | 0.00 | 996.0 | |
| 20260503203047 | 0 | 36 | 24.0 | 33.0 | 0.00 | 0.00 | 0.00 | 996.4 | |
| 20260503201542 | 0 | 44 | 28.0 | 35.0 | 0.00 | 0.00 | 0.00 | 996.9 | |
| 20260503200049 | 0 | 60 | 31.0 | 38.0 | 0.00 | 0.00 | 0.00 | 998.0 | |
| 20260503194548 | 0 | 58 | 29.0 | 35.0 | 0.00 | 0.00 | 0.00 | 998.2 | |
| 20260503193049 | 0 | 62 | 29.0 | 35.0 | 0.00 | 0.00 | 0.00 | 999.4 | |
| 20260503191542 | 0 | 51 | 27.0 | 34.0 | 0.00 | 0.00 | 0.00 | 999.8 | |
| 20260503190048 | 0 | 45 | 27.0 | 36.0 | 0.00 | 0.00 | 0.00 | 1000.3 | |
| 20260503184548 | 0 | 49 | 27.0 | 33.0 | 0.00 | 0.00 | 0.00 | 1001.4 | |
| 20260503183045 | 0 | 51 | 25.0 | 31.0 | 0.00 | 0.00 | 0.00 | 1002.4 | |
| 20260503181617 | 0 | 53 | 21.0 | 25.0 | 0.00 | 0.00 | 0.00 | 1003.6 | |
| 20260503180104 | 0 | 54 | 17.0 | 22.0 | 0.00 | 0.00 | 0.00 | 1004.8 | |
| 20260503174554 | 0 | 45 | 16.0 | 20.0 | 0.00 | 0.00 | 0.00 | 1005.2 | |
| 20260503173055 | 0 | 51 | 13.0 | 19.0 | 0.00 | 0.00 | 0.00 | 1005.8 | |
| 20260503171546 | 0 | 65 | 13.0 | 19.0 | 0.00 | 0.00 | 0.00 | 1006.9 | |
| 20260503100106 | 0 | 322 | 2.0 | 5.0 | 0.00 | 0.00 | 0.00 | 1014.3 |